Location: *
(55.5817°S, 142.4781°W)
Time: 05:58:28
(UTC+00:00)

Cosmos 1733 Rocket - Pass Details

Date: 29 April 2025
Orbit: 598 x 620 km, 82.5° (Epoch: 23 May)

Event Time Altitude Azimuth Distance (km) Brightness Sun altitude
Rises 16:04:31 0° 333° (NNW) 2,910 6.4 -6.9°
Reaches altitude 10° 16:06:49 10° 327° (NNW) 2,010 5.5 -6.6°
Maximum altitude 16:11:08 48° 252° (WSW) 838 3.3 -6.0°
Drops below altitude 10° 16:15:30 10° 177° (S) 2,028 5.6 -5.4°
Sets 16:17:49 0° 170° (S) 2,939 6.4 -5.1°
